Cosmos 1603 - Orbit

View from above orbital plane
View from above orbital plane
View from above satellite
View from above satellite

Ground track
Ground track

The orbit data is extracted from the following two-line orbital elements,

1 15333U 84106A   13139.09698485  .00000299  00000-0  18240-3 0  7244
2 15333 071.0278 332.1629 0021192 312.1113 186.5185 14.13875344477636
Epoch (UTC): 19 May 2013 02:19:39
Eccentricity: 0.0021192
inclination: 71.0278°
perigee height: 831 km
apogee height: 861 km
right ascension of ascending node: 332.1629°
argument of perigee: 312.1113°
revolutions per day: 14.13875344
mean anomaly at epoch: 186.5185°
orbit number at epoch: 47763

The dashed part of the orbit path shows where the satellite is in the earth's shadow,  

Developed and maintained by Chris Peat, Heavens-Above GmbH. Please read the updated FAQ before sending e-mail. Imprint. DLR